Regional Weather Roundup
Issued by NWS

Home | Current Version | Previous Version | Graphics & Text | Print | Product List | Glossary Off
Versions: 1 2 3 4 5 6 7 8 9 10 11 12 13 14 15 16 17 18 19 20 21 22 23 24 25 26 27 28 29 30 31 32 33 34 35 36 37 38 39 40 41 42 43 44 45 46 47 48 49 50

000
ASUS43 KTOP 011208
RWRKS

WEATHER ROUNDUP FOR KANSAS
NATIONAL WEATHER SERVICE GOODLAND KS
700 AM CDT MON SEP 01 2014

NOTE:  "FAIR" INDICATES FEW OR NO CLOUDS BELOW 12,000 FEET WITH NO
SIGNIFICANT WEATHER AND/OR OBSTRUCTIONS TO VISIBILITY.

KSZ001>006-013>018-027>032-041>047-011300-
NORTHWEST KANSAS

CITY           SKY/WX    TMP DP  RH WIND       PRES   REMARKS
GOODLAND       CLEAR     50  49  96 NW8       30.01R
6HR MIN TEMP:  50; 6HR MAX TEMP:  59;

HAYS           CLEAR     63  55  77 N7        29.90R
HILL CITY      CLEAR     57  54  89 W5        29.92R
6HR MIN TEMP:  57; 6HR MAX TEMP:  64;

RUSSELL        CLEAR     63  61  93 SW3       29.87R
6HR MIN TEMP:  62; 6HR MAX TEMP:  67;

$$

KSZ061>065-074>080-084>089-011300-
SOUTHWEST KANSAS

CITY           SKY/WX    TMP DP  RH WIND       PRES   REMARKS
DODGE CITY     CLEAR     60  58  92 N9        29.90R
6HR MIN TEMP:  60; 6HR MAX TEMP:  67;

ELKHART          N/A     60  53  77 NW7         N/A
GARDEN CITY    CLEAR     60  55  83 NE9       29.93R
6HR MIN TEMP:  60; 6HR MAX TEMP:  66;

GREAT BEND     CLEAR     63  57  82 CALM      29.89R
LIBERAL        CLEAR     63  55  77 N15       29.90S
PRATT          PTCLDY    64  59  82 E9        29.89R
$$

KSZ066>073-081>083-090>101-011300-
SOUTHEAST KANSAS

CITY           SKY/WX    TMP DP  RH WIND       PRES   REMARKS
CHANUTE        TSTM      65  63  93 E15       29.92F FOG
6HR MIN TEMP:  63; 6HR MAX TEMP:  73;

COFFEYVILLE    CLOUDY    67  63  87 SE10      29.93S
6HR MIN TEMP:  66; 6HR MAX TEMP:  83; 6HR PCP:  0.41;

HUTCHINSON     CLOUDY    66  60  81 SE18      29.86R
6HR MIN TEMP:  64; 6HR MAX TEMP:  66; 6HR PCP:  0.07;

MEDICINE LODGE   N/A     67  61  81 E15G23    29.84R
NEWTON         CLOUDY    63  57  82 SE12      29.90R
PARSONS        CLOUDY    67  63  87 VRB3      29.96R
6HR MIN TEMP:  64; 6HR MAX TEMP:  83;

WICHITA INTL   MOCLDY    68  60  75 SE14      29.87R
6HR MIN TEMP:  66; 6HR MAX TEMP:  83; 6HR PCP:  0.01;

WICHITA JABRA  CLOUDY    66  61  84 SE12G20   29.87S
6HR MIN TEMP:  62; 6HR MAX TEMP:  74;

WICHITA MCCONL CLOUDY    67  64  88 E13G21    29.88R
WINFIELD       CLOUDY    69  61  75 E14G24    29.90R
6HR MIN TEMP:  66; 6HR MAX TEMP:  82; 6HR PCP: TRACE;

$$

KSZ007>012-019>026-033>040-048>060-102>105-011300-
NORTHEAST KANSAS

CITY           SKY/WX    TMP DP  RH WIND       PRES   REMARKS
CONCORDIA      CLEAR     61  61 100 S5        29.85R
6HR MIN TEMP:  60; 6HR MAX TEMP:  69; 6HR PCP: TRACE;

EMPORIA        CLOUDY    63  63 100 S9        29.86R
6HR MIN TEMP:  62; 6HR MAX TEMP:  64; 6HR PCP:  1.26;

LAWRENCE       CLOUDY   N/A N/A N/A S10       29.84R
                                      6HR PCP:  0.54;

MANHATTAN      MOCLDY    64  63  96 SW7       29.83S
6HR MIN TEMP:  64; 6HR MAX TEMP:  69; 6HR PCP:  0.10;

OLATHE IND     CLOUDY    65  63  93 S15G26    29.83R
6HR MIN TEMP:  65; 6HR MAX TEMP:  66; 6HR PCP:  0.53;

OLATHE EXE     CLOUDY    64  63  96 S13G22    29.83R
6HR MIN TEMP:  64; 6HR MAX TEMP:  66; 6HR PCP:  0.48;

SALINA         PTCLDY    63  61  93 NW3       29.86R
6HR MIN TEMP:  63; 6HR MAX TEMP:  65; 6HR PCP:  0.07;

TOPEKA BILLARD CLOUDY    68  65  90 S10       29.84R
6HR MIN TEMP:  67; 6HR MAX TEMP:  69; 6HR PCP:  0.47;

TOPEKA FORBES  CLOUDY    66  63  90 S13       29.83R
6HR MIN TEMP:  66; 6HR MAX TEMP:  67; 6HR PCP:  0.43;

$$



USA.gov is the U.S. government's official web portal to all federal, state and local government web resources and services.